#datetime,building,power
2021-12-31T00:00:00,pst,13.70
2021-12-31T00:01:00,pst,13.65
2021-12-31T00:02:00,pst,13.62
2021-12-31T00:03:00,pst,14.16
2021-12-31T00:04:00,pst,14.20
2021-12-31T00:05:00,pst,14.22
2021-12-31T00:06:00,pst,14.29
2021-12-31T00:07:00,pst,13.61
2021-12-31T00:08:00,pst,13.63
2021-12-31T00:09:00,pst,13.67
2021-12-31T00:10:00,pst,13.66
2021-12-31T00:11:00,pst,13.72
2021-12-31T00:12:00,pst,13.68
2021-12-31T00:13:00,pst,13.93
2021-12-31T00:14:00,pst,13.90
2021-12-31T00:15:00,pst,13.86
2021-12-31T00:16:00,pst,14.49
2021-12-31T00:17:00,pst,14.52
2021-12-31T00:18:00,pst,14.53
2021-12-31T00:19:00,pst,14.58
2021-12-31T00:20:00,pst,14.04
2021-12-31T00:21:00,pst,13.97
2021-12-31T00:22:00,pst,14.08
2021-12-31T00:23:00,pst,14.06
2021-12-31T00:24:00,pst,14.04
2021-12-31T00:25:00,pst,14.04
2021-12-31T00:26:00,pst,14.05
2021-12-31T00:27:00,pst,13.88
2021-12-31T00:28:00,pst,14.00
2021-12-31T00:29:00,pst,13.91
2021-12-31T00:30:00,pst,14.54
2021-12-31T00:31:00,pst,14.56
2021-12-31T00:32:00,pst,14.48
2021-12-31T00:33:00,pst,14.46
2021-12-31T00:34:00,pst,14.38
2021-12-31T00:35:00,pst,14.87
2021-12-31T00:36:00,pst,14.88
2021-12-31T00:37:00,pst,14.86
2021-12-31T00:38:00,pst,14.82
2021-12-31T00:39:00,pst,14.71
2021-12-31T00:40:00,pst,14.84
2021-12-31T00:41:00,pst,14.82
2021-12-31T00:42:00,pst,14.16
2021-12-31T00:43:00,pst,13.99
2021-12-31T00:44:00,pst,13.86
2021-12-31T00:45:00,pst,13.85
2021-12-31T00:46:00,pst,13.85
2021-12-31T00:47:00,pst,13.83
2021-12-31T00:48:00,pst,13.88
2021-12-31T00:49:00,pst,13.87
2021-12-31T00:50:00,pst,13.98
2021-12-31T00:51:00,pst,13.94
2021-12-31T00:52:00,pst,14.04
2021-12-31T00:53:00,pst,14.02
2021-12-31T00:54:00,pst,14.02
2021-12-31T00:55:00,pst,14.01
2021-12-31T00:56:00,pst,13.87
2021-12-31T00:57:00,pst,13.88
2021-12-31T00:58:00,pst,13.86
2021-12-31T00:59:00,pst,13.82
2021-12-31T01:00:00,pst,13.76
2021-12-31T01:01:00,pst,13.82
2021-12-31T01:02:00,pst,13.71
2021-12-31T01:03:00,pst,13.75
2021-12-31T01:04:00,pst,13.70
2021-12-31T01:05:00,pst,14.32
2021-12-31T01:06:00,pst,14.42
2021-12-31T01:07:00,pst,14.40
2021-12-31T01:08:00,pst,14.43
2021-12-31T01:09:00,pst,13.69
2021-12-31T01:10:00,pst,13.64
2021-12-31T01:11:00,pst,13.65
2021-12-31T01:12:00,pst,13.65
2021-12-31T01:13:00,pst,13.82
2021-12-31T01:14:00,pst,13.83
2021-12-31T01:15:00,pst,13.81
2021-12-31T01:16:00,pst,13.80
2021-12-31T01:17:00,pst,13.78
2021-12-31T01:18:00,pst,13.70
2021-12-31T01:19:00,pst,14.33
2021-12-31T01:20:00,pst,14.41
2021-12-31T01:21:00,pst,14.31
2021-12-31T01:22:00,pst,14.43
2021-12-31T01:23:00,pst,13.77
2021-12-31T01:24:00,pst,13.79
2021-12-31T01:25:00,pst,13.90
2021-12-31T01:26:00,pst,13.69
2021-12-31T01:27:00,pst,13.74
2021-12-31T01:28:00,pst,13.77
2021-12-31T01:29:00,pst,13.76
2021-12-31T01:30:00,pst,13.84
2021-12-31T01:31:00,pst,13.81
2021-12-31T01:32:00,pst,13.72
2021-12-31T01:33:00,pst,14.29
2021-12-31T01:34:00,pst,14.24
2021-12-31T01:35:00,pst,14.21
2021-12-31T01:36:00,pst,14.29
2021-12-31T01:37:00,pst,14.17
2021-12-31T01:38:00,pst,22.30
2021-12-31T01:39:00,pst,22.14
2021-12-31T01:40:00,pst,22.08
2021-12-31T01:41:00,pst,13.56
2021-12-31T01:42:00,pst,13.54
2021-12-31T01:43:00,pst,13.66
2021-12-31T01:44:00,pst,13.70
2021-12-31T01:45:00,pst,13.75
2021-12-31T01:46:00,pst,13.73
2021-12-31T01:47:00,pst,14.28
2021-12-31T01:48:00,pst,14.37
2021-12-31T01:49:00,pst,14.31
2021-12-31T01:50:00,pst,14.39
2021-12-31T01:51:00,pst,13.74
2021-12-31T01:52:00,pst,13.73
2021-12-31T01:53:00,pst,13.78
2021-12-31T01:54:00,pst,13.79
2021-12-31T01:55:00,pst,13.86
2021-12-31T01:56:00,pst,13.82
2021-12-31T01:57:00,pst,13.75
2021-12-31T01:58:00,pst,13.73
2021-12-31T01:59:00,pst,13.63
2021-12-31T02:00:00,pst,13.69
2021-12-31T02:01:00,pst,14.23
2021-12-31T02:02:00,pst,14.24
2021-12-31T02:03:00,pst,14.23
2021-12-31T02:04:00,pst,14.22
2021-12-31T02:05:00,pst,13.64
2021-12-31T02:06:00,pst,13.70
2021-12-31T02:07:00,pst,13.69
2021-12-31T02:08:00,pst,13.67
2021-12-31T02:09:00,pst,13.66
2021-12-31T02:10:00,pst,13.58
2021-12-31T02:11:00,pst,13.58
2021-12-31T02:12:00,pst,13.58
2021-12-31T02:13:00,pst,13.52
2021-12-31T02:14:00,pst,13.60
2021-12-31T02:15:00,pst,14.23
2021-12-31T02:16:00,pst,14.30
2021-12-31T02:17:00,pst,14.30
2021-12-31T02:18:00,pst,14.39
2021-12-31T02:19:00,pst,13.76
2021-12-31T02:20:00,pst,13.87
2021-12-31T02:21:00,pst,13.92
2021-12-31T02:22:00,pst,13.87
2021-12-31T02:23:00,pst,13.91
2021-12-31T02:24:00,pst,13.82
2021-12-31T02:25:00,pst,13.78
2021-12-31T02:26:00,pst,13.78
2021-12-31T02:27:00,pst,13.64
2021-12-31T02:28:00,pst,14.27
2021-12-31T02:29:00,pst,14.33
2021-12-31T02:30:00,pst,14.30
2021-12-31T02:31:00,pst,14.37
2021-12-31T02:32:00,pst,14.49
2021-12-31T02:33:00,pst,13.80
2021-12-31T02:34:00,pst,13.80
2021-12-31T02:35:00,pst,13.76
2021-12-31T02:36:00,pst,13.69
2021-12-31T02:37:00,pst,13.68
2021-12-31T02:38:00,pst,13.69
2021-12-31T02:39:00,pst,13.62
2021-12-31T02:40:00,pst,13.62
2021-12-31T02:41:00,pst,13.57
2021-12-31T02:42:00,pst,13.52
2021-12-31T02:43:00,pst,14.13
2021-12-31T02:44:00,pst,14.16
2021-12-31T02:45:00,pst,14.50
2021-12-31T02:46:00,pst,14.48
2021-12-31T02:47:00,pst,13.80
2021-12-31T02:48:00,pst,13.70
2021-12-31T02:49:00,pst,13.61
2021-12-31T02:50:00,pst,13.61
2021-12-31T02:51:00,pst,13.61
2021-12-31T02:52:00,pst,13.63
2021-12-31T02:53:00,pst,13.62
2021-12-31T02:54:00,pst,13.62
2021-12-31T02:55:00,pst,13.62
2021-12-31T02:56:00,pst,13.96
2021-12-31T02:57:00,pst,14.26
2021-12-31T02:58:00,pst,14.30
2021-12-31T02:59:00,pst,14.34
2021-12-31T03:00:00,pst,14.36
2021-12-31T03:01:00,pst,13.63
2021-12-31T03:02:00,pst,13.75
2021-12-31T03:03:00,pst,13.74
2021-12-31T03:04:00,pst,13.78
2021-12-31T03:05:00,pst,13.77
2021-12-31T03:06:00,pst,13.75
2021-12-31T03:07:00,pst,13.74
2021-12-31T03:08:00,pst,13.75
2021-12-31T03:09:00,pst,13.74
2021-12-31T03:10:00,pst,13.71
2021-12-31T03:11:00,pst,14.37
2021-12-31T03:12:00,pst,14.37
2021-12-31T03:13:00,pst,14.36
2021-12-31T03:14:00,pst,14.36
2021-12-31T03:15:00,pst,13.78
2021-12-31T03:16:00,pst,13.83
2021-12-31T03:17:00,pst,13.84
2021-12-31T03:18:00,pst,13.84
2021-12-31T03:19:00,pst,13.86
2021-12-31T03:20:00,pst,13.91
2021-12-31T03:21:00,pst,13.89
2021-12-31T03:22:00,pst,13.90
2021-12-31T03:23:00,pst,13.84
2021-12-31T03:24:00,pst,14.47
2021-12-31T03:25:00,pst,14.49
2021-12-31T03:26:00,pst,14.48
2021-12-31T03:27:00,pst,14.42
2021-12-31T03:28:00,pst,13.68
2021-12-31T03:29:00,pst,13.69
2021-12-31T03:30:00,pst,13.69
2021-12-31T03:31:00,pst,13.68
2021-12-31T03:32:00,pst,13.68
2021-12-31T03:33:00,pst,13.68
2021-12-31T03:34:00,pst,13.79
2021-12-31T03:35:00,pst,13.94
2021-12-31T03:36:00,pst,14.03
2021-12-31T03:37:00,pst,14.63
2021-12-31T03:38:00,pst,14.65
2021-12-31T03:39:00,pst,14.52
2021-12-31T03:40:00,pst,14.52
2021-12-31T03:41:00,pst,14.51
2021-12-31T03:42:00,pst,13.84
2021-12-31T03:43:00,pst,13.81
2021-12-31T03:44:00,pst,13.80
2021-12-31T03:45:00,pst,13.82
2021-12-31T03:46:00,pst,13.98
2021-12-31T03:47:00,pst,13.86
2021-12-31T03:48:00,pst,13.77
2021-12-31T03:49:00,pst,13.77
2021-12-31T03:50:00,pst,13.84
2021-12-31T03:51:00,pst,14.38
2021-12-31T03:52:00,pst,14.38
2021-12-31T03:53:00,pst,14.32
2021-12-31T03:54:00,pst,14.41
2021-12-31T03:55:00,pst,13.74
2021-12-31T03:56:00,pst,13.74
2021-12-31T03:57:00,pst,13.76
2021-12-31T03:58:00,pst,13.76
2021-12-31T03:59:00,pst,13.52
2021-12-31T04:00:00,pst,13.61
2021-12-31T04:01:00,pst,13.60
2021-12-31T04:02:00,pst,14.19
2021-12-31T04:03:00,pst,13.62
2021-12-31T04:04:00,pst,13.59
2021-12-31T04:05:00,pst,14.17
2021-12-31T04:06:00,pst,14.33
2021-12-31T04:07:00,pst,14.30
2021-12-31T04:08:00,pst,14.32
2021-12-31T04:09:00,pst,13.74
2021-12-31T04:10:00,pst,13.68
2021-12-31T04:11:00,pst,13.65
2021-12-31T04:12:00,pst,13.65
2021-12-31T04:13:00,pst,22.40
2021-12-31T04:14:00,pst,22.32
2021-12-31T04:15:00,pst,22.16
2021-12-31T04:16:00,pst,13.69
2021-12-31T04:17:00,pst,13.87
2021-12-31T04:18:00,pst,14.47
2021-12-31T04:19:00,pst,14.46
2021-12-31T04:20:00,pst,14.44
2021-12-31T04:21:00,pst,14.46
2021-12-31T04:22:00,pst,13.72
2021-12-31T04:23:00,pst,13.71
2021-12-31T04:24:00,pst,13.73
2021-12-31T04:25:00,pst,13.78
2021-12-31T04:26:00,pst,13.78
2021-12-31T04:27:00,pst,13.77
2021-12-31T04:28:00,pst,13.75
2021-12-31T04:29:00,pst,13.70
2021-12-31T04:30:00,pst,13.62
2021-12-31T04:31:00,pst,14.16
2021-12-31T04:32:00,pst,14.94
2021-12-31T04:33:00,pst,14.22
2021-12-31T04:34:00,pst,14.23
2021-12-31T04:35:00,pst,14.19
2021-12-31T04:36:00,pst,13.52
2021-12-31T04:37:00,pst,13.52
2021-12-31T04:38:00,pst,13.58
2021-12-31T04:39:00,pst,13.58
2021-12-31T04:40:00,pst,13.58
2021-12-31T04:41:00,pst,13.61
2021-12-31T04:42:00,pst,13.72
2021-12-31T04:43:00,pst,13.70
2021-12-31T04:44:00,pst,13.71
2021-12-31T04:45:00,pst,14.23
2021-12-31T04:46:00,pst,14.25
2021-12-31T04:47:00,pst,14.24
2021-12-31T04:48:00,pst,14.42
2021-12-31T04:49:00,pst,13.94
2021-12-31T04:50:00,pst,13.86
2021-12-31T04:51:00,pst,13.87
2021-12-31T04:52:00,pst,13.90
2021-12-31T04:53:00,pst,13.91
2021-12-31T04:54:00,pst,13.91
2021-12-31T04:55:00,pst,13.84
2021-12-31T04:56:00,pst,13.82
2021-12-31T04:57:00,pst,13.73
2021-12-31T04:58:00,pst,14.27
2021-12-31T04:59:00,pst,14.28
2021-12-31T05:00:00,pst,14.14
2021-12-31T05:01:00,pst,14.26
2021-12-31T05:02:00,pst,14.25
2021-12-31T05:03:00,pst,13.54
2021-12-31T05:04:00,pst,13.54
2021-12-31T05:05:00,pst,13.53
2021-12-31T05:06:00,pst,13.58
2021-12-31T05:07:00,pst,13.62
2021-12-31T05:08:00,pst,13.61
2021-12-31T05:09:00,pst,13.60
2021-12-31T05:10:00,pst,13.55
2021-12-31T05:11:00,pst,14.17
2021-12-31T05:12:00,pst,14.14
2021-12-31T05:13:00,pst,14.13
2021-12-31T05:14:00,pst,14.28
2021-12-31T05:15:00,pst,14.38
2021-12-31T05:16:00,pst,13.69
2021-12-31T05:17:00,pst,13.76
2021-12-31T05:18:00,pst,13.82
2021-12-31T05:19:00,pst,13.82
2021-12-31T05:20:00,pst,13.76
2021-12-31T05:21:00,pst,13.74
2021-12-31T05:22:00,pst,13.70
2021-12-31T05:23:00,pst,13.69
2021-12-31T05:24:00,pst,13.66
2021-12-31T05:25:00,pst,14.28
2021-12-31T05:26:00,pst,14.30
2021-12-31T05:27:00,pst,14.23
2021-12-31T05:28:00,pst,14.24
2021-12-31T05:29:00,pst,13.66
2021-12-31T05:30:00,pst,13.64
2021-12-31T05:31:00,pst,13.49
2021-12-31T05:32:00,pst,13.49
2021-12-31T05:33:00,pst,13.54
2021-12-31T05:34:00,pst,13.53
2021-12-31T05:35:00,pst,13.53
2021-12-31T05:36:00,pst,13.49
2021-12-31T05:37:00,pst,13.54
2021-12-31T05:38:00,pst,14.22
2021-12-31T05:39:00,pst,14.50
2021-12-31T05:40:00,pst,14.51
2021-12-31T05:41:00,pst,14.47
2021-12-31T05:42:00,pst,13.80
2021-12-31T05:43:00,pst,13.70
2021-12-31T05:44:00,pst,13.63
2021-12-31T05:45:00,pst,23.22
2021-12-31T05:46:00,pst,13.75
2021-12-31T05:47:00,pst,13.72
2021-12-31T05:48:00,pst,13.88
2021-12-31T05:49:00,pst,13.84
2021-12-31T05:50:00,pst,13.90
2021-12-31T05:51:00,pst,13.88
2021-12-31T05:52:00,pst,14.42
2021-12-31T05:53:00,pst,14.43
2021-12-31T05:54:00,pst,14.43
2021-12-31T05:55:00,pst,14.50
2021-12-31T05:56:00,pst,13.84
2021-12-31T05:57:00,pst,13.84
2021-12-31T05:58:00,pst,13.84
2021-12-31T05:59:00,pst,13.87
2021-12-31T06:00:00,pst,13.88
2021-12-31T06:01:00,pst,13.87
2021-12-31T06:02:00,pst,14.64
2021-12-31T06:03:00,pst,14.66
2021-12-31T06:04:00,pst,14.83
2021-12-31T06:05:00,pst,14.82
2021-12-31T06:06:00,pst,14.84
2021-12-31T06:07:00,pst,14.90
2021-12-31T06:08:00,pst,14.74
2021-12-31T06:09:00,pst,14.65
2021-12-31T06:10:00,pst,14.71
2021-12-31T06:11:00,pst,14.77
2021-12-31T06:12:00,pst,14.14
2021-12-31T06:13:00,pst,14.13
2021-12-31T06:14:00,pst,14.11
2021-12-31T06:15:00,pst,13.76
2021-12-31T06:16:00,pst,13.83
2021-12-31T06:17:00,pst,13.75
2021-12-31T06:18:00,pst,13.69
2021-12-31T06:19:00,pst,13.65
2021-12-31T06:20:00,pst,13.83
2021-12-31T06:21:00,pst,13.86
2021-12-31T06:22:00,pst,13.86
2021-12-31T06:23:00,pst,13.85
2021-12-31T06:24:00,pst,13.86
2021-12-31T06:25:00,pst,13.93
2021-12-31T06:26:00,pst,13.80
2021-12-31T06:27:00,pst,13.80
2021-12-31T06:28:00,pst,13.82
2021-12-31T06:29:00,pst,13.92
2021-12-31T06:30:00,pst,13.90
2021-12-31T06:31:00,pst,13.84
2021-12-31T06:32:00,pst,14.46
2021-12-31T06:33:00,pst,14.24
2021-12-31T06:34:00,pst,14.18
2021-12-31T06:35:00,pst,14.24
2021-12-31T06:36:00,pst,14.00
2021-12-31T06:37:00,pst,13.96
2021-12-31T06:38:00,pst,13.53
2021-12-31T06:39:00,pst,13.53
2021-12-31T06:40:00,pst,13.53
2021-12-31T06:41:00,pst,13.47
2021-12-31T06:42:00,pst,13.55
2021-12-31T06:43:00,pst,13.59
2021-12-31T06:44:00,pst,13.56
2021-12-31T06:45:00,pst,14.20
2021-12-31T06:46:00,pst,14.17
2021-12-31T06:47:00,pst,14.24
2021-12-31T06:48:00,pst,14.23
2021-12-31T06:49:00,pst,14.23
2021-12-31T06:50:00,pst,13.57
2021-12-31T06:51:00,pst,13.86
2021-12-31T06:52:00,pst,13.80
2021-12-31T06:53:00,pst,22.61
2021-12-31T06:54:00,pst,22.50
2021-12-31T06:55:00,pst,22.32
2021-12-31T06:56:00,pst,13.83
2021-12-31T06:57:00,pst,13.90
2021-12-31T06:58:00,pst,13.65
2021-12-31T06:59:00,pst,13.83
2021-12-31T07:00:00,pst,14.22
2021-12-31T07:01:00,pst,14.22
2021-12-31T07:02:00,pst,14.30
2021-12-31T07:03:00,pst,14.30
2021-12-31T07:04:00,pst,13.58
2021-12-31T07:05:00,pst,13.52
2021-12-31T07:06:00,pst,13.45
2021-12-31T07:07:00,pst,13.50
2021-12-31T07:08:00,pst,13.41
2021-12-31T07:09:00,pst,13.41
2021-12-31T07:10:00,pst,13.40
2021-12-31T07:11:00,pst,13.40
2021-12-31T07:12:00,pst,14.42
2021-12-31T07:13:00,pst,14.07
2021-12-31T07:14:00,pst,14.18
2021-12-31T07:15:00,pst,14.17
2021-12-31T07:16:00,pst,14.19
2021-12-31T07:17:00,pst,13.69
2021-12-31T07:18:00,pst,13.65
2021-12-31T07:19:00,pst,13.65
2021-12-31T07:20:00,pst,7.55
2021-12-31T07:21:00,pst,7.55
2021-12-31T07:22:00,pst,7.78
2021-12-31T07:23:00,pst,7.62
2021-12-31T07:24:00,pst,7.62
2021-12-31T07:25:00,pst,7.69
2021-12-31T07:26:00,pst,8.22
2021-12-31T07:27:00,pst,8.33
2021-12-31T07:28:00,pst,8.30
2021-12-31T07:29:00,pst,8.30
2021-12-31T07:30:00,pst,7.64
2021-12-31T07:31:00,pst,7.69
2021-12-31T07:32:00,pst,7.68
2021-12-31T07:33:00,pst,7.64
2021-12-31T07:34:00,pst,7.59
2021-12-31T07:35:00,pst,7.46
2021-12-31T07:36:00,pst,7.52
2021-12-31T07:37:00,pst,7.64
2021-12-31T07:38:00,pst,8.17
2021-12-31T07:39:00,pst,8.13
2021-12-31T07:40:00,pst,8.13
2021-12-31T07:41:00,pst,8.18
2021-12-31T07:42:00,pst,7.47
2021-12-31T07:43:00,pst,7.62
2021-12-31T07:44:00,pst,7.61
2021-12-31T07:45:00,pst,7.60
2021-12-31T07:46:00,pst,7.62
2021-12-31T07:47:00,pst,7.60
2021-12-31T07:48:00,pst,7.59
2021-12-31T07:49:00,pst,7.57
2021-12-31T07:50:00,pst,7.58
2021-12-31T07:51:00,pst,8.20
2021-12-31T07:52:00,pst,8.22
2021-12-31T07:53:00,pst,8.38
2021-12-31T07:54:00,pst,8.77
2021-12-31T07:55:00,pst,8.76
2021-12-31T07:56:00,pst,8.13
2021-12-31T07:57:00,pst,8.21
2021-12-31T07:58:00,pst,8.26
2021-12-31T07:59:00,pst,8.13
2021-12-31T08:00:00,pst,8.19
2021-12-31T08:01:00,pst,7.87
2021-12-31T08:02:00,pst,7.80
2021-12-31T08:03:00,pst,7.70
2021-12-31T08:04:00,pst,7.70
2021-12-31T08:05:00,pst,8.28
2021-12-31T08:06:00,pst,8.16
2021-12-31T08:07:00,pst,8.18
2021-12-31T08:08:00,pst,8.36
2021-12-31T08:09:00,pst,7.67
2021-12-31T08:10:00,pst,7.60
2021-12-31T08:11:00,pst,7.59
2021-12-31T08:12:00,pst,7.41
2021-12-31T08:13:00,pst,7.42
2021-12-31T08:14:00,pst,7.38
2021-12-31T08:15:00,pst,7.37
2021-12-31T08:16:00,pst,7.40
2021-12-31T08:17:00,pst,7.46
2021-12-31T08:18:00,pst,7.96
2021-12-31T08:19:00,pst,8.29
2021-12-31T08:20:00,pst,8.27
2021-12-31T08:21:00,pst,8.46
2021-12-31T08:22:00,pst,8.59
2021-12-31T08:23:00,pst,8.59
2021-12-31T08:24:00,pst,8.76
2021-12-31T08:25:00,pst,8.77
2021-12-31T08:26:00,pst,8.78
2021-12-31T08:27:00,pst,8.84
2021-12-31T08:28:00,pst,7.79
2021-12-31T08:29:00,pst,7.71
2021-12-31T08:30:00,pst,7.84
2021-12-31T08:31:00,pst,7.78
2021-12-31T08:32:00,pst,7.76
2021-12-31T08:33:00,pst,7.87
2021-12-31T08:34:00,pst,7.85
2021-12-31T08:35:00,pst,7.88
2021-12-31T08:36:00,pst,7.86
2021-12-31T08:37:00,pst,7.79
2021-12-31T08:38:00,pst,8.30
2021-12-31T08:39:00,pst,7.61
2021-12-31T08:40:00,pst,7.61
2021-12-31T08:41:00,pst,7.61
2021-12-31T08:42:00,pst,7.52
2021-12-31T08:43:00,pst,7.52
2021-12-31T08:44:00,pst,7.44
2021-12-31T08:45:00,pst,7.45
2021-12-31T08:46:00,pst,7.44
2021-12-31T08:47:00,pst,7.43
2021-12-31T08:48:00,pst,8.25
2021-12-31T08:49:00,pst,8.24
2021-12-31T08:50:00,pst,8.21
2021-12-31T08:51:00,pst,8.28
2021-12-31T08:52:00,pst,8.22
2021-12-31T08:53:00,pst,7.57
2021-12-31T08:54:00,pst,7.57
2021-12-31T08:55:00,pst,7.75
2021-12-31T08:56:00,pst,7.73
2021-12-31T08:57:00,pst,7.73
2021-12-31T08:58:00,pst,7.79
2021-12-31T08:59:00,pst,7.81
2021-12-31T09:00:00,pst,7.77
2021-12-31T09:01:00,pst,7.80
2021-12-31T09:02:00,pst,8.35
2021-12-31T09:03:00,pst,8.28
2021-12-31T09:04:00,pst,8.34
2021-12-31T09:05:00,pst,8.41
2021-12-31T09:06:00,pst,7.74
2021-12-31T09:07:00,pst,7.73
2021-12-31T09:08:00,pst,7.66
2021-12-31T09:09:00,pst,7.59
2021-12-31T09:10:00,pst,7.57
2021-12-31T09:11:00,pst,7.86
2021-12-31T09:12:00,pst,7.64
2021-12-31T09:13:00,pst,7.64
2021-12-31T09:14:00,pst,7.69
2021-12-31T09:15:00,pst,8.18
2021-12-31T09:16:00,pst,8.15
2021-12-31T09:17:00,pst,8.13
2021-12-31T09:18:00,pst,8.20
2021-12-31T09:19:00,pst,8.30
2021-12-31T09:20:00,pst,7.55
2021-12-31T09:21:00,pst,7.55
2021-12-31T09:22:00,pst,7.61
2021-12-31T09:23:00,pst,7.66
2021-12-31T09:24:00,pst,7.76
2021-12-31T09:25:00,pst,7.75
2021-12-31T09:26:00,pst,7.89
2021-12-31T09:27:00,pst,8.02
2021-12-31T09:28:00,pst,7.86
2021-12-31T09:29:00,pst,7.79
2021-12-31T09:30:00,pst,8.28
2021-12-31T09:31:00,pst,17.09
2021-12-31T09:32:00,pst,16.92
2021-12-31T09:33:00,pst,16.86
2021-12-31T09:34:00,pst,16.10
2021-12-31T09:35:00,pst,7.81
2021-12-31T09:36:00,pst,8.16
2021-12-31T09:37:00,pst,7.98
2021-12-31T09:38:00,pst,7.98
2021-12-31T09:39:00,pst,7.69
2021-12-31T09:40:00,pst,7.72
2021-12-31T09:41:00,pst,7.63
2021-12-31T09:42:00,pst,7.62
2021-12-31T09:43:00,pst,8.22
2021-12-31T09:44:00,pst,8.24
2021-12-31T09:45:00,pst,8.24
2021-12-31T09:46:00,pst,8.22
2021-12-31T09:47:00,pst,8.20
2021-12-31T09:48:00,pst,7.54
2021-12-31T09:49:00,pst,7.50
2021-12-31T09:50:00,pst,7.49
2021-12-31T09:51:00,pst,7.52
2021-12-31T09:52:00,pst,7.50
2021-12-31T09:53:00,pst,7.50
2021-12-31T09:54:00,pst,7.59
2021-12-31T09:55:00,pst,7.56
2021-12-31T09:56:00,pst,7.53
2021-12-31T09:57:00,pst,8.31
2021-12-31T09:58:00,pst,8.34
2021-12-31T09:59:00,pst,8.32
2021-12-31T10:00:00,pst,8.38
2021-12-31T10:01:00,pst,8.36
2021-12-31T10:02:00,pst,7.62
2021-12-31T10:03:00,pst,7.62
2021-12-31T10:04:00,pst,7.62
2021-12-31T10:05:00,pst,7.57
2021-12-31T10:06:00,pst,7.61
2021-12-31T10:07:00,pst,7.69
2021-12-31T10:08:00,pst,7.55
2021-12-31T10:09:00,pst,8.54
2021-12-31T10:10:00,pst,8.43
2021-12-31T10:11:00,pst,8.42
2021-12-31T10:12:00,pst,8.44
2021-12-31T10:13:00,pst,8.40
2021-12-31T10:14:00,pst,8.52
2021-12-31T10:15:00,pst,8.51
2021-12-31T10:16:00,pst,8.58
2021-12-31T10:17:00,pst,8.59
2021-12-31T10:18:00,pst,8.51
2021-12-31T10:19:00,pst,7.50
2021-12-31T10:20:00,pst,7.49
2021-12-31T10:21:00,pst,7.49
2021-12-31T10:22:00,pst,7.46
2021-12-31T10:23:00,pst,7.45
2021-12-31T10:24:00,pst,7.50
2021-12-31T10:25:00,pst,7.50
2021-12-31T10:26:00,pst,7.51
2021-12-31T10:27:00,pst,7.52
2021-12-31T10:28:00,pst,7.62
2021-12-31T10:29:00,pst,7.59
2021-12-31T10:30:00,pst,7.57
2021-12-31T10:31:00,pst,7.62
2021-12-31T10:32:00,pst,7.62
2021-12-31T10:33:00,pst,7.60
2021-12-31T10:34:00,pst,7.55
2021-12-31T10:35:00,pst,7.54
2021-12-31T10:36:00,pst,7.53
2021-12-31T10:37:00,pst,7.60
2021-12-31T10:38:00,pst,7.52
2021-12-31T10:39:00,pst,7.63
2021-12-31T10:40:00,pst,7.64
2021-12-31T10:41:00,pst,7.48
2021-12-31T10:42:00,pst,8.11
2021-12-31T10:43:00,pst,8.20
2021-12-31T10:44:00,pst,8.07
2021-12-31T10:45:00,pst,8.18
2021-12-31T10:46:00,pst,7.60
2021-12-31T10:47:00,pst,7.67
2021-12-31T10:48:00,pst,7.63
2021-12-31T10:49:00,pst,7.55
2021-12-31T10:50:00,pst,7.49
2021-12-31T10:51:00,pst,7.49
2021-12-31T10:52:00,pst,7.49
2021-12-31T10:53:00,pst,7.49
2021-12-31T10:54:00,pst,7.41
2021-12-31T10:55:00,pst,7.79
2021-12-31T10:56:00,pst,8.01
2021-12-31T10:57:00,pst,8.08
2021-12-31T10:58:00,pst,8.21
2021-12-31T10:59:00,pst,8.38
2021-12-31T11:00:00,pst,7.66
2021-12-31T11:01:00,pst,7.66
2021-12-31T11:02:00,pst,7.65
2021-12-31T11:03:00,pst,7.61
2021-12-31T11:04:00,pst,7.62
2021-12-31T11:05:00,pst,7.72
2021-12-31T11:06:00,pst,7.73
2021-12-31T11:07:00,pst,7.71
2021-12-31T11:08:00,pst,7.73
2021-12-31T11:09:00,pst,7.61
2021-12-31T11:10:00,pst,8.34
2021-12-31T11:11:00,pst,8.35
2021-12-31T11:12:00,pst,8.22
2021-12-31T11:13:00,pst,8.35
2021-12-31T11:14:00,pst,8.17
2021-12-31T11:15:00,pst,7.51
2021-12-31T11:16:00,pst,7.52
2021-12-31T11:17:00,pst,7.63
2021-12-31T11:18:00,pst,7.71
2021-12-31T11:19:00,pst,7.62
2021-12-31T11:20:00,pst,7.61
2021-12-31T11:21:00,pst,7.72
2021-12-31T11:22:00,pst,7.70
2021-12-31T11:23:00,pst,7.73
2021-12-31T11:24:00,pst,7.73
2021-12-31T11:25:00,pst,8.32
2021-12-31T11:26:00,pst,8.28
2021-12-31T11:27:00,pst,8.27
2021-12-31T11:28:00,pst,8.43
2021-12-31T11:29:00,pst,7.60
2021-12-31T11:30:00,pst,7.88
2021-12-31T11:31:00,pst,7.88
2021-12-31T11:32:00,pst,7.85
2021-12-31T11:33:00,pst,7.83
2021-12-31T11:34:00,pst,7.78
2021-12-31T11:35:00,pst,7.77
2021-12-31T11:36:00,pst,7.82
2021-12-31T11:37:00,pst,7.63
2021-12-31T11:38:00,pst,7.69
2021-12-31T11:39:00,pst,8.21
2021-12-31T11:40:00,pst,8.19
2021-12-31T11:41:00,pst,8.20
2021-12-31T11:42:00,pst,8.26
2021-12-31T11:43:00,pst,7.46
2021-12-31T11:44:00,pst,7.48
2021-12-31T11:45:00,pst,7.46
2021-12-31T11:46:00,pst,7.46
2021-12-31T11:47:00,pst,7.53
2021-12-31T11:48:00,pst,7.60
2021-12-31T11:49:00,pst,7.67
2021-12-31T11:50:00,pst,7.66
2021-12-31T11:51:00,pst,7.66
2021-12-31T11:52:00,pst,7.64
2021-12-31T11:53:00,pst,8.19
2021-12-31T11:54:00,pst,8.31
2021-12-31T11:55:00,pst,8.31
2021-12-31T11:56:00,pst,8.64
2021-12-31T11:57:00,pst,8.65
2021-12-31T11:58:00,pst,8.58
2021-12-31T11:59:00,pst,7.95
2021-12-31T12:00:00,pst,8.79
2021-12-31T12:01:00,pst,9.75
2021-12-31T12:02:00,pst,9.95
2021-12-31T12:03:00,pst,9.91
2021-12-31T12:04:00,pst,9.87
2021-12-31T12:05:00,pst,9.83
2021-12-31T12:06:00,pst,9.82
2021-12-31T12:07:00,pst,9.18
2021-12-31T12:08:00,pst,8.80
2021-12-31T12:09:00,pst,7.84
2021-12-31T12:10:00,pst,7.75
2021-12-31T12:11:00,pst,7.74
2021-12-31T12:12:00,pst,16.45
2021-12-31T12:13:00,pst,16.32
2021-12-31T12:14:00,pst,16.20
2021-12-31T12:15:00,pst,7.80
2021-12-31T12:16:00,pst,7.71
2021-12-31T12:17:00,pst,7.71
2021-12-31T12:18:00,pst,7.53
2021-12-31T12:19:00,pst,7.52
2021-12-31T12:20:00,pst,7.53
2021-12-31T12:21:00,pst,7.62
2021-12-31T12:22:00,pst,7.61
2021-12-31T12:23:00,pst,7.51
2021-12-31T12:24:00,pst,7.59
2021-12-31T12:25:00,pst,7.50
2021-12-31T12:26:00,pst,7.53
2021-12-31T12:27:00,pst,7.59
2021-12-31T12:28:00,pst,7.71
2021-12-31T12:29:00,pst,7.56
2021-12-31T12:30:00,pst,7.55
2021-12-31T12:31:00,pst,7.49
2021-12-31T12:32:00,pst,8.12
2021-12-31T12:33:00,pst,8.32
2021-12-31T12:34:00,pst,8.39
2021-12-31T12:35:00,pst,8.29
2021-12-31T12:36:00,pst,7.50
2021-12-31T12:37:00,pst,7.59
2021-12-31T12:38:00,pst,7.59
2021-12-31T12:39:00,pst,7.51
2021-12-31T12:40:00,pst,7.52
2021-12-31T12:41:00,pst,7.56
2021-12-31T12:42:00,pst,7.56
2021-12-31T12:43:00,pst,7.55
2021-12-31T12:44:00,pst,7.60
2021-12-31T12:45:00,pst,7.49
2021-12-31T12:46:00,pst,7.46
2021-12-31T12:47:00,pst,8.06
2021-12-31T12:48:00,pst,8.10
2021-12-31T12:49:00,pst,8.03
2021-12-31T12:50:00,pst,8.00
2021-12-31T12:51:00,pst,7.35
2021-12-31T12:52:00,pst,7.35
2021-12-31T12:53:00,pst,7.36
2021-12-31T12:54:00,pst,7.40
2021-12-31T12:55:00,pst,8.44
2021-12-31T12:56:00,pst,8.52
2021-12-31T12:57:00,pst,8.58
2021-12-31T12:58:00,pst,8.61
2021-12-31T12:59:00,pst,9.53
2021-12-31T13:00:00,pst,7.62
2021-12-31T13:01:00,pst,10.21
2021-12-31T13:02:00,pst,8.46
2021-12-31T13:03:00,pst,12.13
2021-12-31T13:04:00,pst,8.51
2021-12-31T13:05:00,pst,7.85
2021-12-31T13:06:00,pst,11.44
2021-12-31T13:07:00,pst,10.27
2021-12-31T13:08:00,pst,7.91
2021-12-31T13:09:00,pst,7.90
2021-12-31T13:10:00,pst,7.85
2021-12-31T13:11:00,pst,8.00
2021-12-31T13:12:00,pst,7.90
2021-12-31T13:13:00,pst,7.88
2021-12-31T13:14:00,pst,7.72
2021-12-31T13:15:00,pst,8.34
2021-12-31T13:16:00,pst,8.33
2021-12-31T13:17:00,pst,8.37
2021-12-31T13:18:00,pst,8.35
2021-12-31T13:19:00,pst,7.68
2021-12-31T13:20:00,pst,7.73
2021-12-31T13:21:00,pst,7.58
2021-12-31T13:22:00,pst,7.58
2021-12-31T13:23:00,pst,7.48
2021-12-31T13:24:00,pst,7.49
2021-12-31T13:25:00,pst,7.49
2021-12-31T13:26:00,pst,7.63
2021-12-31T13:27:00,pst,7.50
2021-12-31T13:28:00,pst,7.49
2021-12-31T13:29:00,pst,7.56
2021-12-31T13:30:00,pst,8.18